GFSFLT2_prec_sndepth_306.txt.gz
Snowfall_Accumulation
0.0 0.0 0.0 0.0 0.0 0.0 0.0 0.0 0.0 nan nan nan nan nan nan nan nan nan nan nan nan nan nan nan nan nan nan
0.0 0.0 0.0 0.0 0.0 0.0 0.0 0.0 0.0 nan nan nan nan nan nan nan nan nan nan nan nan nan nan nan nan nan nan
0.0 0.0 0.0 0.0 0.0 0.0 0.0 0.0 0.0 nan nan nan nan nan nan nan nan nan nan nan nan nan nan nan nan nan nan
0.1 0.0 0.0 0.0 0.0 0.0 0.0 0.0 0.0 0.0 nan nan nan nan nan nan nan nan nan nan nan nan nan nan nan nan nan
0.1 0.1 0.1 0.1 0.0 0.0 0.0 0.0 0.0 0.0 0.0 0.0 0.0 0.0 0.0 nan nan nan nan nan nan nan nan nan nan nan nan
0.2 0.2 0.1 0.1 0.0 0.0 0.0 0.1 0.9 0.0 0.1 0.0 0.0 0.0 0.0 0.0 nan nan nan nan nan nan nan nan nan nan nan
0.7 0.3 0.2 0.0 0.0 0.1 0.0 0.2 0.3 0.0 0.1 0.1 0.0 0.0 0.0 0.0 nan nan nan nan nan nan nan nan nan nan nan
0.8 0.8 0.4 0.2 0.2 0.1 0.1 0.1 0.0 0.0 0.0 0.9 0.0 0.0 0.0 0.0 nan nan nan nan nan nan nan nan nan nan nan
nan nan nan nan nan 0.5 1.1 1.4 0.5 0.1 0.0 0.2 0.0 0.0 0.0 0.0 0.0 nan nan nan nan nan nan nan nan nan 0.0
0.0 0.0 nan nan nan 0.0 2.3 4.1 1.6 1.1 0.0 1.0 0.3 0.4 1.3 0.2 0.0 0.0 0.0 nan nan nan nan nan nan 0.0 0.0
0.1 0.0 0.0 0.0 0.0 0.0 0.1 0.3 1.4 1.7 0.0 0.5 2.2 1.2 1.9 1.1 0.4 0.2 0.0 0.0 0.0 0.0 nan nan nan 0.0 0.0
0.3 0.3 0.2 0.2 0.1 0.1 0.0 0.0 0.1 0.2 0.0 0.0 6.8 1.2 4.5 3.4 1.8 0.4 0.2 0.1 0.1 0.1 0.1 nan nan nan nan
1.5 0.6 0.3 0.3 0.2 0.5 0.1 0.2 0.2 0.1 0.0 0.1 1.4 0.9 2.3 4.5 3.0 1.7 0.8 0.4 0.3 0.3 0.2 0.2 0.2 0.1 0.2
0.7 0.5 0.5 0.7 0.8 0.6 1.8 1.2 2.8 1.7 0.3 0.2 0.3 0.7 5.5 2.3 2.4 2.8 1.2 3.3 0.5 0.3 0.3 0.2 0.1 0.1 0.1
1.7 1.2 1.1 1.2 1.2 0.9 1.6 2.0 4.3 2.9 3.6 2.6 0.5 0.5 1.3 1.9 6.3 1.8 1.6 1.7 0.5 0.6 0.7 0.5 0.2 0.2 0.1
1.5 1.7 2.3 2.8 3.0 3.0 2.9 3.7 4.1 2.3 3.3 3.4 3.9 5.6 3.6 1.7 1.2 1.3 1.1 1.2 0.7 0.6 0.7 1.5 0.7 0.2 0.0
2.7 2.2 2.3 2.4 2.8 3.2 2.9 2.6 2.7 2.3 2.4 3.3 4.6 5.5 8.4 5.6 1.0 nan 3.0 1.6 1.6 1.5 0.7 1.1 1.1 0.5 0.2

GFSFLT2_prec_sndepth_312.txt.gz
Snowfall_Accumulation
0.0 0.0 0.0 0.0 0.0 0.0 0.0 0.0 0.0 nan nan nan nan nan nan nan nan nan nan nan nan nan nan nan nan nan nan
0.0 0.0 0.0 0.0 0.0 0.0 0.0 0.0 0.0 nan nan nan nan nan nan nan nan nan nan nan nan nan nan nan nan nan nan
0.0 0.0 0.0 0.0 0.0 0.0 0.0 0.0 0.0 nan nan nan nan nan nan nan nan nan nan nan nan nan nan nan nan nan nan
0.1 0.0 0.0 0.0 0.0 0.0 0.0 0.0 0.0 0.0 nan nan nan nan nan nan nan nan nan nan nan nan nan nan nan nan nan
0.2 0.1 0.1 0.0 0.0 0.0 0.0 0.0 0.0 0.0 0.0 0.0 0.0 0.0 0.0 nan nan nan nan nan nan nan nan nan nan nan nan
0.2 0.4 0.1 0.2 0.0 0.0 0.0 0.1 0.8 0.0 0.0 0.0 0.0 0.0 0.0 0.0 nan nan nan nan nan nan nan nan nan nan nan
1.3 0.5 0.3 0.0 0.0 0.1 0.0 0.1 0.3 0.0 0.1 0.0 0.0 0.0 0.0 0.0 nan nan nan nan nan nan nan nan nan nan nan
0.5 0.5 0.2 0.1 0.1 0.0 0.0 0.0 0.0 0.0 0.0 1.0 0.0 0.0 0.0 0.0 nan nan nan nan nan nan nan nan nan nan nan
nan nan nan nan nan 0.5 1.5 1.6 0.5 0.0 0.0 0.3 0.0 0.0 0.0 0.0 0.0 nan nan nan nan nan nan nan nan nan 0.0
0.0 0.0 nan nan nan 0.0 1.8 3.7 1.4 1.0 0.0 0.9 0.2 0.4 1.3 0.2 0.0 0.0 0.0 nan nan nan nan nan nan 0.0 0.0
0.6 0.2 0.1 0.0 0.0 0.0 0.0 0.3 1.5 1.8 0.0 0.5 2.2 1.2 2.0 1.0 0.3 0.1 0.0 0.0 0.0 0.0 nan nan nan 0.0 0.0
0.2 0.3 0.2 0.1 0.1 0.0 0.0 0.0 0.0 0.2 0.0 0.0 7.1 1.4 4.8 3.5 1.8 0.3 0.2 0.1 0.0 0.1 0.1 nan nan nan nan
1.4 0.6 0.3 0.2 0.2 0.4 0.1 0.1 0.2 0.1 0.0 0.0 1.3 0.9 2.6 4.9 3.1 1.5 0.7 0.4 0.3 0.3 0.2 0.2 0.1 0.1 0.1
0.8 0.6 0.5 0.7 0.8 0.6 1.9 1.2 2.9 1.7 0.2 0.2 0.2 0.5 5.9 2.4 2.4 2.9 1.0 3.3 0.4 0.3 0.3 0.2 0.1 0.0 0.1
1.7 1.2 1.1 1.2 1.2 0.9 1.7 2.1 4.5 3.0 3.6 2.4 0.4 0.3 1.3 2.2 7.1 1.8 1.5 1.5 0.4 0.6 0.7 0.7 0.2 0.2 0.1
1.5 1.7 2.4 2.9 3.0 3.0 2.9 3.9 4.4 2.4 3.3 3.4 3.9 5.6 3.5 1.7 1.2 1.4 1.0 1.1 0.7 0.5 0.6 2.0 0.7 0.2 0.0
2.7 2.2 2.3 2.5 2.9 3.2 2.9 2.6 2.8 2.3 2.4 3.3 4.6 5.6 8.7 5.7 0.8 nan 3.2 1.5 1.6 1.8 0.8 1.4 1.5 0.5 0.2

GFSFLT2_prec_sndepth_318.txt.gz
Snowfall_Accumulation
0.0 0.0 0.0 0.0 0.0 0.0 0.0 0.0 0.0 nan nan nan nan nan nan nan nan nan nan nan nan nan nan nan nan nan nan
0.0 0.0 0.0 0.0 0.0 0.0 0.0 0.0 0.0 nan nan nan nan nan nan nan nan nan nan nan nan nan nan nan nan nan nan
0.0 0.0 0.0 0.0 0.0 0.0 0.0 0.0 0.0 nan nan nan nan nan nan nan nan nan nan nan nan nan nan nan nan nan nan
0.1 0.0 0.0 0.0 0.0 0.0 0.0 0.0 0.0 0.0 nan nan nan nan nan nan nan nan nan nan nan nan nan nan nan nan nan
0.2 0.1 0.1 0.0 0.0 0.0 0.0 0.0 0.0 0.0 0.0 0.0 0.0 0.0 0.0 nan nan nan nan nan nan nan nan nan nan nan nan
0.2 0.3 0.1 0.2 0.0 0.0 0.0 0.1 0.7 0.0 0.0 0.0 0.0 0.0 0.0 0.0 nan nan nan nan nan nan nan nan nan nan nan
2.3 1.1 0.8 0.1 0.0 0.1 0.1 0.2 0.3 0.0 0.1 0.0 0.0 0.0 0.0 0.0 nan nan nan nan nan nan nan nan nan nan nan
0.4 0.4 0.1 0.1 0.0 0.0 0.0 0.0 0.0 0.0 0.0 1.0 0.0 0.0 0.0 0.0 nan nan nan nan nan nan nan nan nan nan nan
nan nan nan nan nan 0.5 1.6 1.7 0.6 0.1 0.0 0.4 0.0 0.0 0.0 0.0 0.0 nan nan nan nan nan nan nan nan nan 0.0
0.0 0.0 nan nan nan 0.0 1.6 3.7 1.3 1.0 0.0 0.9 0.2 0.4 1.3 0.2 0.0 0.0 0.0 nan nan nan nan nan nan 0.0 0.0
0.5 0.2 0.1 0.0 0.0 0.0 0.0 0.3 1.4 1.7 0.0 0.5 2.1 1.2 2.0 1.1 0.3 0.1 0.0 0.0 0.0 0.0 nan nan nan 0.0 0.0
0.2 0.2 0.2 0.1 0.1 0.0 0.0 0.0 0.0 0.1 0.0 0.0 7.2 1.5 4.8 3.5 1.9 0.3 0.2 0.1 0.0 0.1 0.0 nan nan nan nan
1.4 0.5 0.3 0.2 0.1 0.4 0.1 0.1 0.1 0.1 0.0 0.0 1.3 0.9 2.7 5.1 3.2 1.6 0.7 0.3 0.2 0.3 0.2 0.1 0.1 0.0 0.1
0.8 0.5 0.5 0.7 0.8 0.6 1.9 1.2 3.0 1.7 0.2 0.1 0.2 0.4 6.0 2.5 2.5 3.0 1.1 3.3 0.4 0.3 0.3 0.2 0.1 0.0 0.1
1.7 1.2 1.1 1.3 1.2 0.9 1.8 2.2 4.8 3.1 3.6 2.3 0.3 0.3 1.3 2.2 7.6 1.9 1.5 1.5 0.4 0.5 0.6 0.7 0.2 0.2 0.1
1.5 1.7 2.4 2.9 3.0 3.0 2.9 3.9 4.5 2.4 3.4 3.4 3.9 5.7 3.5 1.7 1.4 1.5 0.9 1.1 0.7 0.5 0.6 2.0 0.7 0.1 0.0
2.6 2.2 2.3 2.5 2.9 3.3 2.9 2.6 2.9 2.3 2.4 3.3 4.6 5.8 9.3 6.0 0.8 nan 3.3 1.5 1.6 1.8 0.8 1.4 1.5 0.5 0.2

GFSFLT2_prec_sndepth_321.txt.gz
Snowfall_Accumulation
0.0 0.0 0.0 0.0 0.0 0.0 0.0 0.0 0.0 nan nan nan nan nan nan nan nan nan nan nan nan nan nan nan nan nan nan
0.0 0.0 0.0 0.0 0.0 0.0 0.0 0.0 0.0 nan nan nan nan nan nan nan nan nan nan nan nan nan nan nan nan nan nan
0.0 0.0 0.0 0.0 0.0 0.0 0.0 0.0 0.0 nan nan nan nan nan nan nan nan nan nan nan nan nan nan nan nan nan nan
0.1 0.0 0.0 0.0 0.0 0.0 0.0 0.0 0.0 0.0 nan nan nan nan nan nan nan nan nan nan nan nan nan nan nan nan nan
0.2 0.1 0.1 0.0 0.0 0.0 0.0 0.0 0.0 0.0 0.0 0.0 0.0 0.0 0.0 nan nan nan nan nan nan nan nan nan nan nan nan
0.2 0.3 0.1 0.2 0.0 0.0 0.1 0.1 0.8 0.0 0.0 0.0 0.0 0.0 0.0 0.0 nan nan nan nan nan nan nan nan nan nan nan
2.7 1.2 1.1 0.1 0.0 0.1 0.1 0.2 0.3 0.0 0.1 0.0 0.0 0.0 0.0 0.0 nan nan nan nan nan nan nan nan nan nan nan
0.4 0.4 0.1 0.1 0.0 0.0 0.0 0.0 0.0 0.0 0.0 1.0 0.0 0.0 0.0 0.0 nan nan nan nan nan nan nan nan nan nan nan
nan nan nan nan nan 0.6 2.3 2.4 0.9 0.1 0.0 0.7 0.1 0.0 0.0 0.0 0.0 nan nan nan nan nan nan nan nan nan 0.0
0.0 0.0 nan nan nan 0.0 1.6 3.7 1.3 1.0 0.0 0.9 0.2 0.3 1.3 0.2 0.0 0.0 0.0 nan nan nan nan nan nan 0.0 0.0
0.5 0.2 0.1 0.0 0.0 0.0 0.0 0.3 1.4 1.7 0.0 0.5 2.1 1.2 2.0 1.1 0.3 0.1 0.0 0.0 0.0 0.0 nan nan nan 0.0 0.0
0.3 0.2 0.2 0.1 0.1 0.0 0.0 0.0 0.0 0.2 0.0 0.0 7.2 1.5 4.9 3.6 1.9 0.3 0.2 0.1 0.0 0.1 0.0 nan nan nan nan
1.4 0.5 0.3 0.2 0.1 0.4 0.1 0.1 0.1 0.1 0.0 0.0 1.3 0.9 2.7 5.1 3.2 1.6 0.7 0.3 0.2 0.3 0.2 0.1 0.1 0.0 0.1
0.8 0.5 0.5 0.7 0.8 0.6 1.9 1.2 3.0 1.7 0.2 0.1 0.2 0.4 6.0 2.5 2.5 3.1 1.0 3.3 0.4 0.3 0.3 0.2 0.1 0.0 0.1
1.7 1.2 1.1 1.2 1.2 0.9 1.8 2.2 4.8 3.1 3.6 2.3 0.3 0.3 1.3 2.2 7.8 1.9 1.5 1.5 0.4 0.5 0.6 0.7 0.2 0.2 0.1
1.5 1.7 2.4 2.9 3.0 3.0 2.9 4.0 4.5 2.4 3.4 3.4 3.9 5.7 3.5 1.7 1.4 1.6 1.0 1.1 0.7 0.5 0.6 2.0 0.7 0.1 0.0
2.6 2.2 2.3 2.5 2.9 3.3 2.9 2.6 2.9 2.3 2.4 3.3 4.6 5.8 9.4 6.1 0.8 nan 3.3 1.5 1.6 1.8 0.8 1.4 1.5 0.5 0.2

GFSFLT2_prec_sndepth_324.txt.gz
Snowfall_Accumulation
0.0 0.0 0.0 0.0 0.0 0.0 0.0 0.0 0.0 nan nan nan nan nan nan nan nan nan nan nan nan nan nan nan nan nan nan
0.0 0.0 0.0 0.0 0.0 0.0 0.0 0.0 0.0 nan nan nan nan nan nan nan nan nan nan nan nan nan nan nan nan nan nan
0.0 0.0 0.0 0.0 0.0 0.0 0.0 0.0 0.0 nan nan nan nan nan nan nan nan nan nan nan nan nan nan nan nan nan nan
0.1 0.0 0.0 0.0 0.0 0.0 0.0 0.0 0.0 0.0 nan nan nan nan nan nan nan nan nan nan nan nan nan nan nan nan nan
0.2 0.1 0.1 0.0 0.0 0.0 0.0 0.0 0.0 0.0 0.0 0.0 0.0 0.0 0.0 nan nan nan nan nan nan nan nan nan nan nan nan
0.2 0.3 0.1 0.2 0.0 0.0 0.1 0.1 0.8 0.0 0.0 0.0 0.0 0.0 0.0 0.0 nan nan nan nan nan nan nan nan nan nan nan
3.0 1.3 1.1 0.1 0.0 0.1 0.1 0.2 0.3 0.0 0.1 0.0 0.0 0.0 0.0 0.0 nan nan nan nan nan nan nan nan nan nan nan
0.4 0.4 0.1 0.1 0.0 0.0 0.0 0.0 0.0 0.0 0.0 1.1 0.0 0.0 0.0 0.0 nan nan nan nan nan nan nan nan nan nan nan
nan nan nan nan nan 0.8 2.8 3.1 1.2 0.1 0.0 0.7 0.1 0.0 0.0 0.0 0.0 nan nan nan nan nan nan nan nan nan 0.0
0.0 0.0 nan nan nan 0.0 1.6 3.7 1.3 1.0 0.0 0.9 0.2 0.4 1.3 0.2 0.0 0.0 0.0 nan nan nan nan nan nan 0.0 0.0
0.5 0.2 0.1 0.0 0.0 0.0 0.0 0.3 1.4 1.7 0.0 0.5 2.1 1.2 2.0 1.2 0.3 0.1 0.0 0.0 0.0 0.0 nan nan nan 0.0 0.0
0.4 0.3 0.2 0.1 0.1 0.0 0.0 0.0 0.0 0.2 0.0 0.0 7.2 1.5 4.9 3.6 1.9 0.3 0.2 0.1 0.0 0.1 0.0 nan nan nan nan
1.5 0.5 0.3 0.2 0.1 0.4 0.1 0.1 0.1 0.1 0.0 0.0 1.3 0.9 2.7 5.1 3.2 1.6 0.7 0.3 0.2 0.3 0.2 0.1 0.1 0.0 0.1
0.8 0.5 0.5 0.7 0.8 0.6 1.9 1.2 3.0 1.7 0.2 0.1 0.2 0.4 6.0 2.5 2.5 3.2 1.0 3.3 0.4 0.3 0.3 0.2 0.1 0.0 0.1
1.7 1.2 1.1 1.2 1.2 0.9 1.8 2.2 4.8 3.1 3.6 2.3 0.3 0.3 1.3 2.2 7.8 2.0 1.5 1.5 0.4 0.5 0.6 0.7 0.2 0.2 0.1
1.5 1.7 2.4 2.9 3.0 3.0 2.9 4.0 4.5 2.4 3.4 3.4 3.9 5.7 3.5 1.7 1.4 1.6 1.0 1.1 0.7 0.5 0.6 2.1 0.8 0.2 0.0
2.6 2.2 2.3 2.5 2.9 3.3 2.9 2.6 2.9 2.3 2.4 3.3 4.6 5.8 9.5 6.2 0.8 nan 3.3 1.5 1.6 1.8 0.8 1.4 1.5 0.5 0.2